Location: Zlin
(49.2330°N, 17.6670°E)
Time: 02:08:46
(UTC+02:00)

ISS - Visible Passes

Search period start: 20 September 2017 00:00
Search period end: 30 September 2017 00:00
Orbit: 401 x 407 km, 51.6° (Epoch: 20 September)

Date Brightness Start Highest point End Pass type
(mag) Time Alt. Az. Time Alt. Az. Time Alt. Az.
20 Sep -1.5 04:16:11 17° SE 04:16:11 17° SE 04:17:07 10° SE visible
20 Sep -1.6 05:49:03 10° WSW 05:49:46 11° SW 05:50:29 10° SSW visible
21 Sep -1.4 04:59:40 11° S 04:59:40 11° S 04:59:59 10° S visible
25 Sep -1.6 19:45:51 10° SSE 19:46:37 11° SE 19:46:37 11° SE visible
26 Sep -2.4 20:27:40 10° SW 20:29:37 27° S 20:29:37 27° S visible
27 Sep -2.4 19:35:49 10° SSW 19:38:27 23° SE 19:39:44 18° ESE visible
27 Sep -1.4 21:11:21 10° WSW 21:12:24 19° WSW 21:12:24 19° WSW visible
28 Sep -3.9 20:18:59 10° WSW 20:22:13 64° SSE 20:22:20 64° SE visible
29 Sep -3.3 19:26:45 10° SW 19:29:51 41° SSE 19:32:09 16° E visible
29 Sep -1.9 21:03:01 10° W 21:04:48 29° W 21:04:48 29° W visible
